Regional Weather Roundup
Issued by NWS

Home | Current Version | Previous Version | Graphics & Text | Print | Product List | Glossary On
Versions: 1 2 3 4 5 6 7 8 9 10 11 12 13 14 15 16 17 18 19 20 21 22 23 24 25 26 27
000
ASUS45 KBOU 280807
RWRCO

WEATHER ROUNDUP FOR COLORADO
NATIONAL WEATHER SERVICE DENVER/BOULDER CO
200 AM MDT SUN MAY 28 2017

NOTE: "FAIR" INDICATES FEW OR NO CLOUDS BELOW 12000 FEET WITH NO
SIGNIFICANT WEATHER AND/OR OBSTRUCTIONS TO VISIBILITY.

COZ001>005-013-030-031-280900-
...NORTHWEST COLORADO...

CITY           SKY/WX    TMP DP  RH WIND       PRES   REMARKS
CRAIG          FAIR      34  31  88 CALM      30.33R
HAYDEN         FAIR      37  30  75 E10       30.33S
MEEKER         FAIR      36  31  82 NE5       30.32S
RABBIT EARS PA NOT AVBL
STEAMBOAT SPGS NOT AVBL
WALDEN         NOT AVBL
$$

COZ006>008-011-280900-
...WEST CENTRAL VALLEYS...

CITY           SKY/WX    TMP DP  RH WIND       PRES   REMARKS
GRAND JUNCTION FAIR      55  28  35 E12       30.24R
MONTROSE       FAIR      44  30  57 SE8       30.30R
EAGLE          FAIR      36  32  85 CALM      30.38S
RIFLE          FAIR      42  29  59 CALM      30.30S
DELTA          FAIR      49  25  39 NE3       30.27S
NUCLA          FAIR      48  27  43 SE5       30.31S
$$

COZ017>023-064>068-280900-
...SOUTHWEST COLORADO...

CITY           SKY/WX    TMP DP  RH WIND       PRES   REMARKS
DURANGO        FAIR      46  23  40 E3        30.24R
CORTEZ         FAIR      40  30  67 NE8       30.23S
PAGOSA SPRINGS FAIR      40  23  52 CALM      30.29S
TELLURIDE      FAIR      38  27  63 SE6       30.39S
WOLF CREEK PAS NOT AVBL
$$

COZ009-010-012-014-032>034-037-058>063-280900-
...CENTRAL COLORADO...

CITY           SKY/WX    TMP DP  RH WIND       PRES   REMARKS
ASPEN          FAIR      34  30  85 S7        30.37R WCI  28
BUENA VISTA    FAIR      37  27  69 E3        30.38S
COPPER MTN     NOT AVBL
BERTHOUD PASS  NOT AVBL
COTTONWOOD PAS NOT AVBL
GUNNISON       FAIR      35  25  66 N5        30.36S WCI  31
KREMMLING      NOT AVBL
LEADVILLE      FAIR      23  20  88 NE5       30.41S WCI  17
SALIDA         FAIR      37  27  67 W8        30.44S
SUNLIGHT       NOT AVBL
WILKERSON PASS NOT AVBL
$$

COZ069>075-280900-
...SAN LUIS VALLEY/SANGRE DE CRISTO MOUNTAINS...

CITY           SKY/WX    TMP DP  RH WIND       PRES   REMARKS
ALAMOSA        FAIR      37  32  82 W3        30.31R
DEL NORTE      NOT AVBL
LA VETA PASS   NOT AVBL
SAGUACHE       NOT AVBL
$$

COZ035-036-038>040-280900-
...NORTHERN COLORADO FRONT RANGE...

CITY           SKY/WX    TMP DP  RH WIND       PRES   REMARKS
DENVER INTL AP FAIR      44  39  82 SW9       30.25F
DMNS CITY PARK   N/A     45  39  79 SE9       30.26F
AURORA         CLEAR     42  39  90 S8        30.27S
FRONT RANGE AP NOT AVBL
ERIE MUNI ARPT NOT AVBL
BOULDER MUN AP NOT AVBL
CENTENNIAL     FAIR      44  38  79 SW6       30.27F
BROOMFIELD     NOT AVBL
FORT COLLINS   FAIR      46  41  82 CALM      30.25S
LONGMONT       NOT AVBL
$$

COZ041-046-047-076>085-087-088-280900-
...PIKES PEAK/PALMER DIVIDE AND SOUTHERN FOOTHILLS...

CITY           SKY/WX    TMP DP  RH WIND       PRES   REMARKS
COLO. SPRINGS  FAIR      44  38  79 NW7       30.30F
A. F. ACADEMY  FAIR      35  34  98 N8        30.30F WCI  28
SCHRIEVER AFB  FAIR      46  35  66 NW14G22   30.30S
CHEYENNE MTN   FAIR      46  31  55 NW9       30.26S
ELLICOTT       FAIR     N/A N/A N/A N6        30.28S
FALCON         FAIR      40  34  80 W9        30.32S
FORT CARSON    FAIR      42  37  81 CALM      30.28F
LIMON          FAIR      40  39  97 W9        30.24F
MONUMENT HILL  NOT AVBL
CANON CITY     NOT AVBL
WALSENBURG     FAIR      46  43  87 W10       30.29F
TRINIDAD       FAIR      44  40  85 W6        30.27F
$$

COZ042>045-048>051-090-091-280900-
...NORTHEAST COLORADO...

CITY           SKY/WX    TMP DP  RH WIND       PRES   REMARKS
GREELEY ARPT   FAIR      40  40 100 NW5       30.24F
AKRON          FAIR      44  40  85 W14       30.20S
BURLINGTON     FAIR      46  43  89 W8        30.17S
WRAY           FAIR      45  43  93 W8        30.15F
YUMA           NOT AVBL
STERLING       NOT AVBL
HOLYOKE        NOT AVBL
FORT MORGAN    FAIR      41  39  93 W8        30.21F
$$

COZ086-089-092>099-280900-
...SOUTHEAST COLORADO...

CITY           SKY/WX    TMP DP  RH WIND       PRES   REMARKS
PUEBLO         FAIR      47  44  90 CALM      30.25F
LA JUNTA       FAIR      51  47  86 NW13      30.21F
LAMAR          FAIR      51  48  89 W8        30.16F
SPRINGFIELD      N/A     47  45  93 NW13      30.18R
$$




USA.gov is the U.S. government's official web portal to all federal, state and local government web resources and services.